Home   Weather   San Bernardino   Past weeks
Flag for USA

Past Weather in San Bernardino, California, USA — Yesterday and Last 2 Weeks

Now
62 °F

Clear.


Feels Like: 62 °F
Forecast: 89 / 61 °F
Wind: 3 mph from West

Location: Riverside Municipal Airport

Current Time: Jul 19, 2019 at 3:18:09 am

Latest Report: Jul 19, 2019 at 1:53 am


Visibility: 10 mi

Pressure: 29.88 "Hg

Humidity: 83%

Dew Point: 57 °F

Location of San BernardinoLocation

Past Weather in San Bernardino — Graph

°F

San Bernardino Temperature Yesterday

Maximum temperature yesterday: 91 °F (at 1:53 pm)
Minimum temperature yesterday: 62 °F (at 5:53 am)
Average temperature yesterday: 74 °F

High & Low Weather Summary for the Past Weeks

 TemperatureHumidityPressure
High100 °F (Jul 14, 1:53 pm)93% (Jul 6, 4:10 am)30.04 "Hg (Jul 6, 4:10 am)
Low60 °F (Jul 5, 3:53 am)18% (Jul 14, 2:53 pm)29.72 "Hg (Jul 12, 4:53 pm)
Average75 °F59%29.89 "Hg
* Reported Jul 4 1:30 am — Jul 19 1:53 am, San Bernardino. Weather by CustomWeather, © 2019

Note: Actual official high and low records may vary slightly from our data, if they occured in-between our weather recording intervals... More about our weather records

Advertising

San Bernardino Weather History for the Previous 24 Hours

Scroll right to see more
 ConditionsComfort  
Time TempWeatherWind HumidityBarometerVisibility
1:53 am
Fri, Jul 19
62 °FClear.3 mph83%29.88 "Hg10 mi
12:53 am65 °FClear.5 mph78%29.89 "Hg10 mi
11:53 pm
Thu, Jul 18
66 °FClear.No wind75%29.89 "Hg10 mi
10:53 pm67 °FClear.6 mph73%29.89 "Hg10 mi
9:53 pm69 °FClear.3 mph68%29.89 "Hg10 mi
8:53 pm72 °FClear.5 mph61%29.86 "Hg10 mi
7:53 pm75 °FSunny.10 mph54%29.84 "Hg10 mi
6:53 pm80 °FSunny.13 mph42%29.83 "Hg10 mi
5:53 pm85 °FSunny.13 mph40%29.82 "Hg10 mi
4:53 pm88 °FSunny.17 mph36%29.83 "Hg10 mi
3:53 pm90 °FSunny.15 mph34%29.84 "Hg10 mi
2:53 pm91 °FSunny.15 mph33%29.85 "Hg10 mi
1:53 pm91 °FSunny.8 mph34%29.88 "Hg10 mi
12:53 pm88 °FSunny.7 mph36%29.90 "Hg10 mi
11:53 am84 °FSunny.9 mph45%29.91 "Hg10 mi
10:53 am80 °FSunny.8 mph51%29.93 "Hg10 mi
9:53 am75 °FSunny.5 mph60%29.94 "Hg9 mi
8:53 am70 °FSunny.No wind71%29.94 "Hg8 mi
7:53 am66 °FSunny.3 mph78%29.94 "Hg8 mi
6:53 am63 °FSunny.3 mph87%29.93 "Hg7 mi
5:53 am62 °FSunny.No wind86%29.93 "Hg8 mi
4:53 am63 °FClear.No wind84%29.93 "Hg10 mi
3:53 am64 °FClear.No wind81%29.93 "Hg10 mi
Weather by CustomWeather, © 2019

See weather overview